ALK1123 OPKC-OPSD

Flight info

Callsign ALK1123
Flight time 1h 51m
Altitude 41000
Route BADUL B466 NH Z301 KUMMI/N0485F410 Z301 RN J186 KAPMI J154 BUNGI J186 DELDA J122 BIREB
Aircraft A359/H-SDE2E3GHIJ3J4J5LM1ORWXY/LB1D1

Departure

Time 2026-04-25 16:18
Airport Jinnah International Airport (OPKC)

Arrival

Time 2026-04-25 18:09
Airport Skardu International Airport (OPSD)
Time Latitude Longitude Altitude Speed Heading
2026-04-25 15:06 24.90255 67.16652 107 ft 0 kts 204°
2026-04-25 15:43 24.90256 67.16652 105 ft 0 kts 204°
2026-04-25 15:56 24.90272 67.16661 109 ft 4 kts 213°
2026-04-25 15:56 24.90292 67.16680 107 ft 4 kts 240°
2026-04-25 15:56 24.90299 67.16707 107 ft 4 kts 281°
2026-04-25 15:57 24.90288 67.16733 107 ft 4 kts 313°
2026-04-25 15:57 24.90269 67.16749 108 ft 2 kts 339°
2026-04-25 15:57 24.90268 67.16750 107 ft 0 kts 339°
2026-04-25 16:01 24.90278 67.16746 107 ft 6 kts 340°
2026-04-25 16:01 24.90333 67.16726 107 ft 0 kts 344°
2026-04-25 16:01 24.90349 67.16721 107 ft 8 kts 344°
2026-04-25 16:02 24.90370 67.16715 107 ft 0 kts 344°
2026-04-25 16:02 24.90388 67.16709 107 ft 0 kts 344°
2026-04-25 16:03 24.90412 67.16701 107 ft 11 kts 344°
2026-04-25 16:03 24.90465 67.16703 108 ft 3 kts 49°
2026-04-25 16:03 24.90481 67.16737 108 ft 7 kts 67°
2026-04-25 16:03 24.90503 67.16801 107 ft 11 kts 70°
2026-04-25 16:04 24.90524 67.16889 105 ft 13 kts 75°
2026-04-25 16:04 24.90552 67.17000 107 ft 17 kts 74°
2026-04-25 16:04 24.90581 67.17111 106 ft 15 kts 74°
2026-04-25 16:04 24.90611 67.17227 107 ft 12 kts 75°
2026-04-25 16:05 24.90635 67.17322 108 ft 14 kts 74°
2026-04-25 16:05 24.90646 67.17366 108 ft 0 kts 75°
2026-04-25 16:05 24.90660 67.17397 106 ft 11 kts 56°
2026-04-25 16:06 24.90680 67.17416 108 ft 9 kts 38°
2026-04-25 16:06 24.90751 67.17470 108 ft 11 kts 30°
2026-04-25 16:06 24.90822 67.17493 112 ft 10 kts
2026-04-25 16:06 24.90860 67.17480 113 ft 3 kts 303°
2026-04-25 16:07 24.90861 67.17467 112 ft 0 kts 272°
2026-04-25 16:09 24.90861 67.17463 113 ft 4 kts 272°
2026-04-25 16:09 24.90254 67.16651 106 ft 0 kts 204°
2026-04-25 16:09 24.90245 67.16647 106 ft 0 kts 204°
2026-04-25 16:12 24.90257 67.16653 105 ft 2 kts 204°
2026-04-25 16:12 24.90271 67.16660 106 ft 2 kts 199°
2026-04-25 16:12 24.90287 67.16670 107 ft 3 kts 238°
2026-04-25 16:12 24.90292 67.16682 107 ft 2 kts 261°
2026-04-25 16:13 24.90292 67.16708 105 ft 3 kts 301°
2026-04-25 16:13 24.90280 67.16722 106 ft 3 kts 340°
2026-04-25 16:13 24.90265 67.16729 107 ft 2 kts 333°
2026-04-25 16:13 24.90250 67.16738 105 ft 3 kts 343°
2026-04-25 16:14 24.90247 67.16740 106 ft 0 kts 353°
2026-04-25 16:14 24.90273 67.16735 104 ft 11 kts 352°
2026-04-25 16:15 24.90353 67.16717 107 ft 13 kts 345°
2026-04-25 16:15 24.90430 67.16698 108 ft 11 kts
2026-04-25 16:15 24.90487 67.16755 108 ft 13 kts 65°
2026-04-25 16:15 24.90515 67.16856 108 ft 15 kts 73°
2026-04-25 16:16 24.90547 67.16980 108 ft 18 kts 75°
2026-04-25 16:16 24.90585 67.17125 109 ft 21 kts 74°
2026-04-25 16:16 24.90623 67.17270 108 ft 16 kts 74°
2026-04-25 16:16 24.90648 67.17362 108 ft 12 kts 71°
2026-04-25 16:17 24.90702 67.17433 107 ft 13 kts 34°
2026-04-25 16:17 24.90784 67.17482 109 ft 13 kts 14°
2026-04-25 16:17 24.90855 67.17461 113 ft 9 kts 300°
2026-04-25 16:17 24.90850 67.17394 113 ft 14 kts 259°
2026-04-25 16:18 24.90759 67.17019 114 ft 89 kts 253°
2026-04-25 16:18 24.90697 67.16779 111 ft 112 kts 254°
2026-04-25 16:18 24.90191 67.14888 688 ft 173 kts 252°
2026-04-25 16:18 24.89771 67.13552 1241 ft 202 kts 249°
2026-04-25 16:19 24.89455 67.11953 1642 ft 225 kts 274°
2026-04-25 16:19 24.90142 67.10388 2347 ft 237 kts 314°
2026-04-25 16:19 24.91632 67.09642 3280 ft 244 kts 351°
2026-04-25 16:20 24.95127 67.10283 4593 ft 277 kts 27°
2026-04-25 16:20 24.96608 67.11667 5383 ft 284 kts 46°
2026-04-25 16:20 24.99194 67.15035 7062 ft 290 kts 50°
2026-04-25 16:21 25.00475 67.16761 7777 ft 293 kts 50°
2026-04-25 16:21 25.01773 67.18514 8471 ft 297 kts 50°
2026-04-25 16:21 25.03084 67.20289 9192 ft 300 kts 50°
2026-04-25 16:21 25.04401 67.22081 9884 ft 302 kts 50°
2026-04-25 16:22 25.05747 67.23914 10375 ft 315 kts 50°
2026-04-25 16:22 25.07160 67.25843 10703 ft 332 kts 50°
2026-04-25 16:22 25.08652 67.27878 11036 ft 349 kts 50°
2026-04-25 16:22 25.10202 67.29997 11447 ft 361 kts 50°
2026-04-25 16:23 25.11794 67.32172 12049 ft 366 kts 50°
2026-04-25 16:23 25.13415 67.34387 12542 ft 377 kts 50°
2026-04-25 16:23 25.15089 67.36676 12832 ft 390 kts 50°
2026-04-25 16:23 25.16820 67.39046 13160 ft 400 kts 50°
2026-04-25 16:24 25.18582 67.41457 13611 ft 407 kts 50°
2026-04-25 16:24 25.20368 67.43901 14107 ft 411 kts 50°
2026-04-25 16:24 25.22165 67.46324 14614 ft 414 kts 49°
2026-04-25 16:24 25.24191 67.48597 15095 ft 417 kts 43°
2026-04-25 16:25 25.26404 67.50762 15540 ft 422 kts 40°
2026-04-25 16:25 25.27898 67.52140 15794 ft 426 kts 39°
2026-04-25 16:25 25.30971 67.54889 16351 ft 431 kts 38°
2026-04-25 16:25 25.33319 67.56977 16786 ft 435 kts 39°
2026-04-25 16:26 25.35674 67.59090 17244 ft 438 kts 39°
2026-04-25 16:26 25.38047 67.61233 17686 ft 441 kts 39°
2026-04-25 16:26 25.40425 67.63398 18110 ft 445 kts 39°
2026-04-25 16:26 25.42821 67.65591 18538 ft 448 kts 39°
2026-04-25 16:27 25.45225 67.67796 18987 ft 450 kts 39°
2026-04-25 16:27 25.47641 67.70012 19431 ft 452 kts 39°
2026-04-25 16:27 25.50067 67.72241 19839 ft 455 kts 39°
2026-04-25 16:27 25.52510 67.74487 20269 ft 457 kts 39°
2026-04-25 16:28 25.54967 67.76747 20680 ft 460 kts 40°
2026-04-25 16:28 25.57433 67.79018 21067 ft 463 kts 39°
2026-04-25 16:28 25.59917 67.81303 21482 ft 465 kts 39°
2026-04-25 16:28 25.62412 67.83598 21898 ft 468 kts 39°
2026-04-25 16:29 25.64926 67.85913 22333 ft 470 kts 39°
2026-04-25 16:29 25.67447 67.88235 22762 ft 473 kts 39°
2026-04-25 16:29 25.69981 67.90572 23210 ft 475 kts 39°
2026-04-25 16:29 25.72527 67.92921 23621 ft 477 kts 39°
2026-04-25 16:30 25.75085 67.95283 24042 ft 480 kts 39°
2026-04-25 16:30 25.77661 67.97662 24459 ft 483 kts 39°
2026-04-25 16:30 25.80250 68.00054 24863 ft 486 kts 39°
2026-04-25 16:30 25.82856 68.02465 25292 ft 489 kts 39°
2026-04-25 16:31 25.85444 68.04862 25726 ft 492 kts 39°
2026-04-25 16:31 25.88080 68.07302 26180 ft 496 kts 39°
2026-04-25 16:31 25.90735 68.09757 26660 ft 498 kts 39°
2026-04-25 16:31 25.93407 68.12234 27123 ft 501 kts 39°
2026-04-25 16:32 25.96090 68.14724 27572 ft 504 kts 39°
2026-04-25 16:32 25.98792 68.17236 27996 ft 508 kts 39°
2026-04-25 16:32 26.01508 68.19760 28430 ft 510 kts 39°
2026-04-25 16:32 26.04239 68.22297 28815 ft 513 kts 38°
2026-04-25 16:33 26.06971 68.24836 29374 ft 511 kts 38°
2026-04-25 16:33 26.09694 68.27370 29994 ft 509 kts 38°
2026-04-25 16:33 26.12407 68.29899 30553 ft 507 kts 38°
2026-04-25 16:33 26.15107 68.32416 31055 ft 507 kts 38°
2026-04-25 16:34 26.17809 68.34935 31552 ft 506 kts 38°
2026-04-25 16:34 26.20538 68.37401 32004 ft 505 kts 35°
2026-04-25 16:34 26.23482 68.39516 32484 ft 503 kts 28°
2026-04-25 16:34 26.26522 68.41436 32981 ft 501 kts 27°
2026-04-25 16:35 26.29586 68.43297 33374 ft 502 kts 27°
2026-04-25 16:35 26.32682 68.45137 33550 ft 507 kts 26°
2026-04-25 16:35 26.35808 68.46978 33734 ft 510 kts 26°
2026-04-25 16:35 26.38945 68.48826 33972 ft 510 kts 26°
2026-04-25 16:36 26.42076 68.50677 34386 ft 507 kts 26°
2026-04-25 16:36 26.43088 68.51276 34525 ft 506 kts 26°
2026-04-25 16:36 26.48277 68.54360 35185 ft 503 kts 26°
2026-04-25 16:36 26.51357 68.56195 35564 ft 502 kts 26°
2026-04-25 16:37 26.54438 68.58032 35902 ft 501 kts 26°
2026-04-25 16:37 26.57513 68.59869 36194 ft 502 kts 26°
2026-04-25 16:37 26.60598 68.61712 36347 ft 504 kts 26°
2026-04-25 16:38 26.66785 68.65405 36513 ft 509 kts 26°
2026-04-25 16:38 26.73092 68.69165 36566 ft 509 kts 26°
2026-04-25 16:38 26.76146 68.70991 36886 ft 501 kts 26°
2026-04-25 16:39 26.79200 68.72818 37230 ft 496 kts 26°
2026-04-25 16:39 26.82241 68.74637 37555 ft 494 kts 26°
2026-04-25 16:39 26.85258 68.76442 37843 ft 492 kts 26°
2026-04-25 16:39 26.88279 68.78248 38100 ft 492 kts 25°
2026-04-25 16:40 26.91298 68.80055 38352 ft 491 kts 25°
2026-04-25 16:40 26.94309 68.81856 38578 ft 491 kts 25°
2026-04-25 16:40 26.97323 68.83663 38800 ft 492 kts 25°
2026-04-25 16:40 27.00343 68.85476 39004 ft 491 kts 25°
2026-04-25 16:41 27.03352 68.87284 39233 ft 491 kts 26°
2026-04-25 16:41 27.05349 68.88485 39346 ft 492 kts 25°
2026-04-25 16:41 27.12420 68.92738 39681 ft 495 kts 25°
2026-04-25 16:42 27.15457 68.94565 39851 ft 495 kts 25°
2026-04-25 16:42 27.18490 68.96392 39964 ft 496 kts 25°
2026-04-25 16:42 27.24612 69.00082 40083 ft 501 kts 25°
2026-04-25 16:43 27.30768 69.03798 40154 ft 504 kts 25°
2026-04-25 16:43 27.36961 69.07543 40159 ft 506 kts 25°
2026-04-25 16:44 27.43162 69.11295 40344 ft 503 kts 25°
2026-04-25 16:44 27.46224 69.13148 40709 ft 498 kts 25°
2026-04-25 16:44 27.49276 69.14993 40848 ft 496 kts 25°
2026-04-25 16:45 27.55313 69.18643 40861 ft 496 kts 25°
2026-04-25 16:45 27.61390 69.22321 40859 ft 496 kts 25°
2026-04-25 16:46 27.67468 69.26008 40860 ft 497 kts 25°
2026-04-25 16:46 27.71564 69.28494 40861 ft 502 kts 25°
2026-04-25 16:47 27.79802 69.33502 40848 ft 507 kts 26°
2026-04-25 16:47 27.86017 69.37289 40841 ft 507 kts 26°
2026-04-25 16:48 27.92226 69.41077 40842 ft 507 kts 26°
2026-04-25 16:48 27.98426 69.44862 40841 ft 507 kts 26°
2026-04-25 16:49 28.04631 69.48657 40842 ft 507 kts 26°
2026-04-25 16:49 28.10845 69.52461 40841 ft 507 kts 26°
2026-04-25 16:50 28.17009 69.56241 40840 ft 499 kts 26°
2026-04-25 16:50 28.23092 69.59976 40841 ft 497 kts 26°
2026-04-25 16:51 28.29168 69.63710 40832 ft 496 kts 26°
2026-04-25 16:51 28.33188 69.66182 40832 ft 497 kts 26°
2026-04-25 16:52 28.41316 69.71190 40832 ft 497 kts 26°
2026-04-25 16:52 28.47345 69.74911 40832 ft 497 kts 26°
2026-04-25 16:53 28.56461 69.80541 40832 ft 497 kts 26°
2026-04-25 16:54 28.62575 69.84221 40833 ft 499 kts 25°
2026-04-25 16:54 28.68749 69.87909 40826 ft 502 kts 25°
2026-04-25 16:55 28.74943 69.91630 40823 ft 503 kts 25°
2026-04-25 16:55 28.80086 69.94735 40823 ft 503 kts 25°
2026-04-25 16:56 28.86279 69.98480 40823 ft 504 kts 25°
2026-04-25 16:56 28.92471 70.02230 40823 ft 504 kts 25°
2026-04-25 16:57 28.98666 70.05985 40823 ft 504 kts 25°
2026-04-25 16:57 29.04865 70.09749 40823 ft 504 kts 25°
2026-04-25 16:58 29.11062 70.13516 40823 ft 505 kts 25°
2026-04-25 16:58 29.17265 70.17292 40822 ft 505 kts 25°
2026-04-25 16:59 29.23470 70.21074 40813 ft 506 kts 25°
2026-04-25 16:59 29.29682 70.24865 40813 ft 506 kts 25°
2026-04-25 17:00 29.35890 70.28660 40814 ft 506 kts 25°
2026-04-25 17:00 29.42064 70.32439 40813 ft 506 kts 25°
2026-04-25 17:01 29.48281 70.36250 40813 ft 507 kts 25°
2026-04-25 17:01 29.54499 70.40066 40814 ft 508 kts 25°
2026-04-25 17:02 29.60758 70.43912 40814 ft 511 kts 25°
2026-04-25 17:02 29.67036 70.47777 40805 ft 512 kts 25°
2026-04-25 17:03 29.73309 70.51645 40804 ft 512 kts 25°
2026-04-25 17:03 29.79594 70.55525 40804 ft 512 kts 25°
2026-04-25 17:04 29.85874 70.59408 40803 ft 512 kts 25°
2026-04-25 17:04 29.92157 70.63297 40808 ft 513 kts 25°
2026-04-25 17:05 29.98441 70.67193 40804 ft 513 kts 25°
2026-04-25 17:05 30.07863 70.73037 40806 ft 513 kts 25°
2026-04-25 17:06 30.14143 70.76944 40803 ft 513 kts 25°
2026-04-25 17:06 30.20404 70.80856 40804 ft 512 kts 25°
2026-04-25 17:07 30.26709 70.84685 40805 ft 511 kts 22°
2026-04-25 17:07 30.33118 70.88241 40804 ft 511 kts 21°
2026-04-25 17:08 30.39537 70.91783 40805 ft 511 kts 22°
2026-04-25 17:08 30.45939 70.95378 40803 ft 512 kts 22°
2026-04-25 17:09 30.52327 70.98989 40805 ft 510 kts 22°
2026-04-25 17:09 30.58708 71.02600 40806 ft 511 kts 22°
2026-04-25 17:10 30.65102 71.06216 40802 ft 511 kts 22°
2026-04-25 17:10 30.71444 71.09830 40805 ft 511 kts 22°
2026-04-25 17:11 30.77818 71.13476 40803 ft 509 kts 22°
2026-04-25 17:11 30.84167 71.17100 40808 ft 509 kts 22°
2026-04-25 17:12 30.90583 71.20761 40813 ft 511 kts 21°
2026-04-25 17:12 30.96917 71.24388 40813 ft 511 kts 21°
2026-04-25 17:13 31.02252 71.27448 40814 ft 510 kts 21°
2026-04-25 17:13 31.09657 71.31704 40813 ft 511 kts 21°
2026-04-25 17:14 31.16033 71.35360 40813 ft 511 kts 21°
2026-04-25 17:14 31.22420 71.39024 40813 ft 511 kts 21°
2026-04-25 17:15 31.28801 71.42711 40813 ft 512 kts 21°
2026-04-25 17:15 31.35189 71.46393 40822 ft 513 kts 21°
2026-04-25 17:16 31.41590 71.50091 40827 ft 513 kts 21°
2026-04-25 17:16 31.47997 71.53792 40833 ft 515 kts 21°
2026-04-25 17:17 31.54423 71.57524 40829 ft 514 kts 21°
2026-04-25 17:17 31.60836 71.61240 40842 ft 513 kts 21°
2026-04-25 17:18 31.67247 71.64964 40837 ft 514 kts 20°
2026-04-25 17:18 31.73669 71.68688 40841 ft 517 kts 21°
2026-04-25 17:19 31.80117 71.72462 40842 ft 518 kts 21°
2026-04-25 17:19 31.86584 71.76263 40851 ft 520 kts 21°
2026-04-25 17:20 31.93062 71.80059 40850 ft 521 kts 21°
2026-04-25 17:20 31.99531 71.83873 40851 ft 521 kts 21°
2026-04-25 17:21 32.06014 71.87687 40852 ft 519 kts 21°
2026-04-25 17:21 32.12461 71.91447 40857 ft 521 kts 21°
2026-04-25 17:22 32.17881 71.94641 40858 ft 520 kts 21°
2026-04-25 17:22 32.25388 71.99075 40858 ft 520 kts 21°
2026-04-25 17:23 32.31870 72.02912 40873 ft 519 kts 21°
2026-04-25 17:23 32.38317 72.06716 40876 ft 518 kts 21°
2026-04-25 17:24 32.44756 72.10535 40860 ft 520 kts 22°
2026-04-25 17:24 32.50864 72.15294 40874 ft 527 kts 31°
2026-04-25 17:25 32.56771 72.20408 40885 ft 528 kts 31°
2026-04-25 17:25 32.62652 72.25585 40875 ft 526 kts 32°
2026-04-25 17:26 32.68540 72.30762 40890 ft 526 kts 31°
2026-04-25 17:26 32.74422 72.35924 40888 ft 526 kts 32°
2026-04-25 17:27 32.80310 72.41096 40885 ft 526 kts 32°
2026-04-25 17:27 32.84238 72.44554 40887 ft 526 kts 32°
2026-04-25 17:28 32.92050 72.51435 40900 ft 525 kts 32°
2026-04-25 17:28 32.97924 72.56621 40895 ft 526 kts 32°
2026-04-25 17:29 33.03798 72.61813 40897 ft 526 kts 31°
2026-04-25 17:29 33.09660 72.67011 40905 ft 525 kts 32°
2026-04-25 17:30 33.15481 72.72193 40906 ft 525 kts 32°
2026-04-25 17:30 33.21364 72.77435 40906 ft 525 kts 32°
2026-04-25 17:31 33.27172 72.82615 40905 ft 524 kts 32°
2026-04-25 17:31 33.33018 72.87835 40917 ft 524 kts 32°
2026-04-25 17:32 33.38859 72.93062 40915 ft 524 kts 32°
2026-04-25 17:32 33.44697 72.98294 40914 ft 525 kts 32°
2026-04-25 17:33 33.50540 73.03540 40916 ft 525 kts 32°
2026-04-25 17:33 33.56383 73.08792 40915 ft 524 kts 32°
2026-04-25 17:34 33.62674 73.12947 40919 ft 511 kts 14°
2026-04-25 17:34 33.69458 73.15332 40925 ft 506 kts
2026-04-25 17:35 33.76289 73.17373 40925 ft 506 kts
2026-04-25 17:35 33.83127 73.19372 40935 ft 506 kts
2026-04-25 17:36 33.89959 73.21403 40942 ft 506 kts
2026-04-25 17:36 33.96788 73.23456 40951 ft 506 kts
2026-04-25 17:37 34.03623 73.25521 40976 ft 506 kts
2026-04-25 17:37 34.10455 73.27586 40998 ft 506 kts
2026-04-25 17:38 34.15029 73.28970 41012 ft 507 kts
2026-04-25 17:38 34.24143 73.31732 41033 ft 507 kts
2026-04-25 17:39 34.30991 73.33815 41035 ft 507 kts
2026-04-25 17:39 34.37794 73.35883 41052 ft 507 kts
2026-04-25 17:40 34.44642 73.37971 41060 ft 507 kts
2026-04-25 17:40 34.51478 73.40058 41030 ft 503 kts
2026-04-25 17:41 34.54854 73.41093 40412 ft 500 kts
2026-04-25 17:41 34.58235 73.42127 39505 ft 502 kts
2026-04-25 17:41 34.61622 73.43163 38678 ft 500 kts
2026-04-25 17:41 34.64987 73.44195 37854 ft 498 kts
2026-04-25 17:42 34.68340 73.45221 36888 ft 498 kts
2026-04-25 17:42 34.71707 73.46253 35831 ft 498 kts
2026-04-25 17:42 34.75055 73.47368 34775 ft 503 kts 13°
2026-04-25 17:42 34.78318 73.48993 33683 ft 513 kts 22°
2026-04-25 17:43 34.80426 73.50451 32839 ft 520 kts 28°
2026-04-25 17:43 34.83431 73.52989 31485 ft 529 kts 32°
2026-04-25 17:43 34.86342 73.55647 30543 ft 529 kts 34°
2026-04-25 17:43 34.89230 73.58384 29812 ft 524 kts 34°
2026-04-25 17:44 34.92083 73.61119 28998 ft 520 kts 35°
2026-04-25 17:44 34.94913 73.63832 28252 ft 514 kts 35°
2026-04-25 17:44 34.97709 73.66501 27617 ft 506 kts 35°
2026-04-25 17:44 35.00471 73.69126 26896 ft 501 kts 35°
2026-04-25 17:45 35.03208 73.71705 26248 ft 494 kts 35°
2026-04-25 17:45 35.05035 73.73426 25774 ft 490 kts 36°
2026-04-25 17:45 35.08571 73.76775 24980 ft 481 kts 36°
2026-04-25 17:45 35.11207 73.79275 24693 ft 479 kts 36°
2026-04-25 17:46 35.13839 73.81770 24634 ft 479 kts 36°
2026-04-25 17:46 35.16465 73.84263 24649 ft 478 kts 36°
2026-04-25 17:46 35.19082 73.86747 24648 ft 477 kts 36°
2026-04-25 17:46 35.21704 73.89236 24650 ft 477 kts 36°
2026-04-25 17:47 35.24324 73.91727 24652 ft 476 kts 36°
2026-04-25 17:47 35.26937 73.94217 24650 ft 476 kts 37°
2026-04-25 17:47 35.29548 73.96710 24657 ft 476 kts 37°
2026-04-25 17:47 35.32156 73.99201 24655 ft 476 kts 37°
2026-04-25 17:48 35.37375 74.04182 24653 ft 476 kts 37°
2026-04-25 17:48 35.39860 74.06880 24657 ft 477 kts 44°
2026-04-25 17:48 35.42021 74.09974 24655 ft 479 kts 53°
2026-04-25 17:49 35.43810 74.13421 24658 ft 480 kts 59°
2026-04-25 17:49 35.45428 74.16995 24658 ft 479 kts 61°
2026-04-25 17:49 35.46970 74.20614 24666 ft 479 kts 62°
2026-04-25 17:49 35.48479 74.24256 24665 ft 479 kts 63°
2026-04-25 17:50 35.49984 74.27912 24665 ft 479 kts 63°
2026-04-25 17:50 35.51491 74.31563 24663 ft 479 kts 62°
2026-04-25 17:50 35.52999 74.35200 24662 ft 479 kts 62°
2026-04-25 17:50 35.54517 74.38851 24666 ft 479 kts 62°
2026-04-25 17:51 35.56035 74.42490 24664 ft 480 kts 62°
2026-04-25 17:51 35.57560 74.46137 24661 ft 479 kts 62°
2026-04-25 17:51 35.59080 74.49775 24670 ft 480 kts 62°
2026-04-25 17:51 35.60582 74.53378 24676 ft 479 kts 62°
2026-04-25 17:52 35.62120 74.57070 24677 ft 479 kts 62°
2026-04-25 17:52 35.63127 74.59485 24667 ft 479 kts 62°
2026-04-25 17:52 35.65185 74.64288 24678 ft 480 kts 60°
2026-04-25 17:52 35.66815 74.67874 24675 ft 480 kts 60°
2026-04-25 17:53 35.68457 74.71450 24673 ft 480 kts 61°
2026-04-25 17:53 35.69755 74.75233 24675 ft 481 kts 72°
2026-04-25 17:53 35.70397 74.79261 24681 ft 481 kts 85°
2026-04-25 17:53 35.70265 74.83357 24681 ft 480 kts 99°
2026-04-25 17:54 35.69567 74.87370 24689 ft 480 kts 104°
2026-04-25 17:54 35.68681 74.91321 24733 ft 480 kts 107°
2026-04-25 17:54 35.67705 74.95253 24802 ft 480 kts 108°
2026-04-25 17:54 35.66710 74.99144 24814 ft 469 kts 108°
2026-04-25 17:55 35.65756 75.02889 24821 ft 449 kts 108°
2026-04-25 17:55 35.64851 75.06479 24817 ft 431 kts 108°
2026-04-25 17:55 35.63994 75.09936 24817 ft 419 kts 108°
2026-04-25 17:55 35.63141 75.13364 24826 ft 418 kts 108°
2026-04-25 17:56 35.62303 75.16773 24833 ft 415 kts 108°
2026-04-25 17:56 35.61479 75.20135 24829 ft 402 kts 108°
2026-04-25 17:56 35.60694 75.23346 24826 ft 385 kts 108°
2026-04-25 17:56 35.59937 75.26466 24830 ft 379 kts 107°
2026-04-25 17:57 35.59137 75.29552 24825 ft 378 kts 113°
2026-04-25 17:57 35.57953 75.32406 24832 ft 375 kts 126°
2026-04-25 17:57 35.56274 75.34826 24830 ft 371 kts 140°
2026-04-25 17:57 35.54964 75.36163 24831 ft 369 kts 144°
2026-04-25 17:58 35.52195 75.38680 24835 ft 370 kts 146°
2026-04-25 17:58 35.50111 75.40535 24832 ft 370 kts 146°
2026-04-25 17:58 35.48033 75.42386 24845 ft 370 kts 146°
2026-04-25 17:58 35.45951 75.44236 24843 ft 369 kts 146°
2026-04-25 17:59 35.43928 75.46025 24595 ft 362 kts 147°
2026-04-25 17:59 35.41890 75.47823 23998 ft 359 kts 146°
2026-04-25 17:59 35.40199 75.49976 23542 ft 346 kts 122°
2026-04-25 17:59 35.39166 75.52560 23220 ft 329 kts 117°
2026-04-25 18:00 35.37915 75.54789 22900 ft 310 kts 136°
2026-04-25 18:00 35.36410 75.56592 22641 ft 295 kts 139°
2026-04-25 18:00 35.34925 75.58256 22298 ft 284 kts 140°
2026-04-25 18:00 35.33632 75.60042 21806 ft 280 kts 120°
2026-04-25 18:01 35.33014 75.62242 21454 ft 270 kts 102°
2026-04-25 18:01 35.32783 75.64505 20925 ft 267 kts 94°
2026-04-25 18:01 35.32975 75.66748 20376 ft 264 kts 80°
2026-04-25 18:01 35.33024 75.68969 19780 ft 260 kts 103°
2026-04-25 18:02 35.32645 75.71113 19220 ft 257 kts 99°
2026-04-25 18:02 35.32841 75.73260 18632 ft 256 kts 69°
2026-04-25 18:02 35.33850 75.75009 18091 ft 252 kts 40°
2026-04-25 18:02 35.35390 75.75961 17535 ft 248 kts 12°
2026-04-25 18:03 35.37085 75.75900 16986 ft 244 kts 341°
2026-04-25 18:03 35.38498 75.74828 16449 ft 239 kts 311°
2026-04-25 18:03 35.39254 75.73059 15894 ft 236 kts 281°
2026-04-25 18:03 35.39149 75.71090 15366 ft 232 kts 249°
2026-04-25 18:04 35.38227 75.69506 15096 ft 231 kts 222°
2026-04-25 18:04 35.37135 75.68156 15032 ft 215 kts 231°
2026-04-25 18:04 35.36215 75.66744 15036 ft 211 kts 232°
2026-04-25 18:04 35.35327 75.65327 15053 ft 209 kts 233°
2026-04-25 18:05 35.34556 75.63853 14744 ft 204 kts 247°
2026-04-25 18:05 35.34211 75.62180 14203 ft 204 kts 265°
2026-04-25 18:05 35.34521 75.60506 13582 ft 203 kts 295°
2026-04-25 18:05 35.35250 75.59030 12967 ft 202 kts 300°
2026-04-25 18:06 35.35966 75.57580 12497 ft 195 kts 303°
2026-04-25 18:06 35.36807 75.56377 12315 ft 177 kts 314°
2026-04-25 18:06 35.37743 75.55442 11959 ft 172 kts 322°
2026-04-25 18:06 35.38724 75.54651 11671 ft 166 kts 327°
2026-04-25 18:07 35.39706 75.53918 11523 ft 168 kts 327°
2026-04-25 18:07 35.40668 75.53075 11444 ft 170 kts 317°
2026-04-25 18:07 35.41425 75.51937 11342 ft 177 kts 292°
2026-04-25 18:07 35.41417 75.50464 10911 ft 181 kts 245°
2026-04-25 18:08 35.40487 75.49546 10651 ft 170 kts 187°
2026-04-25 18:08 35.39335 75.49883 9869 ft 189 kts 142°
2026-04-25 18:08 35.38152 75.50839 8782 ft 214 kts 153°
2026-04-25 18:08 35.36874 75.51750 8149 ft 210 kts 144°
2026-04-25 18:09 35.35719 75.52765 7660 ft 198 kts 147°
2026-04-25 18:09 35.34586 75.53634 7325 ft 183 kts 150°
2026-04-25 18:09 35.33850 75.54220 7324 ft 68 kts 147°
2026-04-25 18:09 35.33748 75.54302 7321 ft 42 kts 147°
2026-04-25 18:10 35.33456 75.54540 7325 ft 20 kts 144°
2026-04-25 18:10 35.33381 75.54569 7323 ft 6 kts 202°
2026-04-25 18:10 35.33350 75.54531 7324 ft 9 kts 233°
2026-04-25 18:10 35.33338 75.54510 7325 ft 0 kts 235°
2026-04-25 18:11 35.33335 75.54506 7325 ft 5 kts 235°
2026-04-25 18:11 35.33287 75.54419 7325 ft 17 kts 238°
2026-04-25 18:11 35.33221 75.54291 7323 ft 19 kts 237°
2026-04-25 18:12 35.33184 75.54220 7321 ft 9 kts 237°
2026-04-25 18:12 35.33158 75.54169 7324 ft 3 kts 221°
2026-04-25 18:12 35.33113 75.54181 7324 ft 0 kts 153°